Location: Kellogg
(38.0159°N, 90.0546°W)
Time: 16:45:22
(UTC+00:00)

Transit 2A - Pass Details

Date: 14 September 2024
Orbit: 590 x 960 km, 66.7° (Epoch: 15 October)

Event Time Altitude Azimuth Distance (km) Brightness Sun altitude
Rises 01:45:07 0° 239° (WSW) 3,401 9.9 -19.0°
Reaches altitude 10° 01:47:50 10° 251° (WSW) 2,524 9.4 -19.5°
Maximum altitude 01:52:56 29° 310° (NW) 1,609 8.3 -20.5°
Drops below altitude 10° 01:58:20 10° 9° (N) 2,678 8.9 -21.5°
Sets 02:01:19 0° 21° (NNE) 3,643 9.5 -22.0°
